VLG78WA LEBL-LEPA

Flight info

Callsign VLG78WA
Flight time 0h 27m
Altitude 17000
Route LARPA N859 TOLSO
Aircraft A20N/M-SDE2E3FGHIRWXY/LB1

Departure

Time 2026-05-03 20:21
Airport Josep Tarradellas Barcelona-El Prat Airport (LEBL)

Arrival

Time 2026-05-03 20:48
Airport Palma de Mallorca Airport (LEPA)
Time Latitude Longitude Altitude Speed Heading
2026-05-03 20:15 41.28576 2.07310 19 ft 0 kts 335°
2026-05-03 20:15 41.28563 2.07318 -1 ft 3 kts 324°
2026-05-03 20:15 41.28549 2.07336 0 ft 3 kts 298°
2026-05-03 20:15 41.28542 2.07360 20 ft 3 kts 272°
2026-05-03 20:16 41.28544 2.07386 19 ft 3 kts 250°
2026-05-03 20:16 41.28546 2.07395 19 ft 0 kts 245°
2026-05-03 20:18 41.28537 2.07389 21 ft 1 kts 182°
2026-05-03 20:19 41.28488 2.07396 17 ft 13 kts 178°
2026-05-03 20:19 41.28442 2.07402 16 ft 9 kts 170°
2026-05-03 20:19 41.28396 2.07370 17 ft 8 kts 257°
2026-05-03 20:19 41.28359 2.07343 16 ft 11 kts 200°
2026-05-03 20:20 41.28300 2.07353 16 ft 11 kts 157°
2026-05-03 20:20 41.28237 2.07408 17 ft 10 kts 117°
2026-05-03 20:20 41.28237 2.07449 18 ft 0 kts 65°
2026-05-03 20:21 41.28280 2.07570 20 ft 54 kts 64°
2026-05-03 20:21 41.28584 2.08459 22 ft 149 kts 65°
2026-05-03 20:21 41.29003 2.09689 1083 ft 142 kts 66°
2026-05-03 20:21 41.29318 2.10978 2021 ft 157 kts 82°
2026-05-03 20:22 41.29180 2.12493 2844 ft 176 kts 104°
2026-05-03 20:22 41.28918 2.14187 3616 ft 199 kts 102°
2026-05-03 20:22 41.28690 2.16111 4483 ft 218 kts 100°
2026-05-03 20:22 41.28506 2.18150 5590 ft 227 kts 98°
2026-05-03 20:23 41.28341 2.20284 6767 ft 236 kts 98°
2026-05-03 20:23 41.28183 2.22464 8122 ft 238 kts 97°
2026-05-03 20:23 41.28023 2.24668 9384 ft 247 kts 98°
2026-05-03 20:23 41.27852 2.26972 10612 ft 255 kts 99°
2026-05-03 20:24 41.27321 2.29288 11471 ft 272 kts 125°
2026-05-03 20:24 41.26004 2.31149 12272 ft 285 kts 151°
2026-05-03 20:24 41.24115 2.32120 13024 ft 300 kts 175°
2026-05-03 20:24 41.21962 2.32236 13739 ft 321 kts 185°
2026-05-03 20:25 41.19647 2.32141 14408 ft 340 kts 184°
2026-05-03 20:25 41.17256 2.32140 15443 ft 347 kts 182°
2026-05-03 20:25 41.14818 2.32264 16277 ft 353 kts 180°
2026-05-03 20:25 41.12345 2.32477 16707 ft 357 kts 179°
2026-05-03 20:26 41.09889 2.32737 16911 ft 359 kts 179°
2026-05-03 20:26 41.07363 2.33022 17012 ft 360 kts 179°
2026-05-03 20:26 41.04900 2.33302 17017 ft 360 kts 179°
2026-05-03 20:26 41.02401 2.33583 17012 ft 360 kts 179°
2026-05-03 20:27 40.99907 2.33860 17006 ft 360 kts 179°
2026-05-03 20:27 40.97416 2.34134 17006 ft 359 kts 179°
2026-05-03 20:27 40.94918 2.34408 17006 ft 359 kts 179°
2026-05-03 20:27 40.92417 2.34682 17007 ft 360 kts 179°
2026-05-03 20:28 40.89918 2.34955 17007 ft 360 kts 179°
2026-05-03 20:28 40.87421 2.35228 16995 ft 360 kts 179°
2026-05-03 20:28 40.84945 2.35499 17007 ft 360 kts 179°
2026-05-03 20:28 40.82435 2.35773 17007 ft 360 kts 179°
2026-05-03 20:29 40.79959 2.36043 17007 ft 360 kts 179°
2026-05-03 20:29 40.77464 2.36314 17007 ft 360 kts 179°
2026-05-03 20:29 40.74980 2.36584 17007 ft 360 kts 179°
2026-05-03 20:29 40.72468 2.36857 17007 ft 360 kts 179°
2026-05-03 20:30 40.69995 2.37125 17007 ft 359 kts 179°
2026-05-03 20:30 40.67491 2.37397 17007 ft 359 kts 179°
2026-05-03 20:30 40.64993 2.37668 17007 ft 359 kts 179°
2026-05-03 20:30 40.62522 2.37935 17007 ft 359 kts 179°
2026-05-03 20:31 40.60019 2.38206 17005 ft 359 kts 179°
2026-05-03 20:31 40.57538 2.38474 17004 ft 359 kts 179°
2026-05-03 20:31 40.55035 2.38745 17003 ft 359 kts 179°
2026-05-03 20:31 40.52558 2.39012 17006 ft 359 kts 179°
2026-05-03 20:32 40.50062 2.39359 17004 ft 361 kts 174°
2026-05-03 20:32 40.47581 2.40105 17004 ft 364 kts 169°
2026-05-03 20:32 40.45161 2.40963 17004 ft 364 kts 169°
2026-05-03 20:32 40.42703 2.41828 17001 ft 364 kts 169°
2026-05-03 20:33 40.40253 2.42685 17000 ft 364 kts 169°
2026-05-03 20:33 40.37803 2.43537 17000 ft 364 kts 169°
2026-05-03 20:33 40.35380 2.44378 16841 ft 364 kts 169°
2026-05-03 20:33 40.32930 2.45229 16592 ft 362 kts 169°
2026-05-03 20:34 40.30497 2.46073 16346 ft 361 kts 169°
2026-05-03 20:34 40.28069 2.46914 16090 ft 359 kts 169°
2026-05-03 20:34 40.25652 2.47751 15844 ft 358 kts 169°
2026-05-03 20:34 40.23247 2.48589 15599 ft 358 kts 168°
2026-05-03 20:35 40.20967 2.49954 15339 ft 367 kts 150°
2026-05-03 20:35 40.19096 2.52260 15101 ft 376 kts 131°
2026-05-03 20:35 40.17717 2.55184 14866 ft 377 kts 124°
2026-05-03 20:35 40.16414 2.58165 14627 ft 376 kts 123°
2026-05-03 20:36 40.15121 2.61134 14390 ft 375 kts 123°
2026-05-03 20:36 40.13843 2.64051 14159 ft 374 kts 123°
2026-05-03 20:36 40.12546 2.66993 13925 ft 372 kts 124°
2026-05-03 20:36 40.11245 2.69928 13665 ft 374 kts 124°
2026-05-03 20:37 40.09942 2.72861 13409 ft 372 kts 124°
2026-05-03 20:37 40.08637 2.75771 13111 ft 369 kts 127°
2026-05-03 20:37 40.06983 2.78252 12570 ft 358 kts 145°
2026-05-03 20:37 40.04954 2.80078 11974 ft 351 kts 151°
2026-05-03 20:38 40.02922 2.81803 11394 ft 346 kts 152°
2026-05-03 20:38 40.00909 2.83497 10804 ft 341 kts 152°
2026-05-03 20:38 39.98924 2.85166 10256 ft 336 kts 152°
2026-05-03 20:38 39.97002 2.86789 10077 ft 320 kts 152°
2026-05-03 20:39 39.95174 2.88335 9909 ft 305 kts 152°
2026-05-03 20:39 39.93433 2.89803 9512 ft 300 kts 152°
2026-05-03 20:39 39.91695 2.91263 9240 ft 290 kts 152°
2026-05-03 20:39 39.90000 2.92684 9039 ft 297 kts 152°
2026-05-03 20:40 39.88241 2.94158 8669 ft 301 kts 152°
2026-05-03 20:40 39.86505 2.95621 8377 ft 293 kts 152°
2026-05-03 20:40 39.84798 2.97056 7928 ft 291 kts 152°
2026-05-03 20:40 39.83116 2.98469 7469 ft 288 kts 152°
2026-05-03 20:41 39.81437 2.99874 7050 ft 285 kts 152°
2026-05-03 20:41 39.79768 3.01271 6620 ft 283 kts 151°
2026-05-03 20:41 39.78121 3.02651 6197 ft 280 kts 151°
2026-05-03 20:41 39.76510 3.04001 5803 ft 275 kts 151°
2026-05-03 20:42 39.74925 3.05330 5522 ft 267 kts 150°
2026-05-03 20:42 39.73301 3.06469 4992 ft 265 kts 166°
2026-05-03 20:42 39.71473 3.06624 4339 ft 266 kts 193°
2026-05-03 20:42 39.69882 3.05630 4145 ft 244 kts 219°
2026-05-03 20:43 39.68785 3.04115 4047 ft 225 kts 233°
2026-05-03 20:43 39.67922 3.02425 3947 ft 225 kts 238°
2026-05-03 20:43 39.67117 3.00698 3847 ft 223 kts 237°
2026-05-03 20:43 39.66302 2.98979 3719 ft 224 kts 238°
2026-05-03 20:44 39.65496 2.97271 3478 ft 219 kts 237°
2026-05-03 20:44 39.64692 2.95573 3359 ft 223 kts 237°
2026-05-03 20:44 39.64153 2.94430 3186 ft 222 kts 237°
2026-05-03 20:44 39.63350 2.92729 2914 ft 220 kts 237°
2026-05-03 20:45 39.62297 2.90498 2535 ft 212 kts 236°
2026-05-03 20:45 39.61549 2.88910 2258 ft 202 kts 235°
2026-05-03 20:45 39.60835 2.87399 1994 ft 189 kts 236°
2026-05-03 20:45 39.60394 2.86463 1832 ft 179 kts 236°
2026-05-03 20:46 39.59751 2.85103 1632 ft 175 kts 236°
2026-05-03 20:46 39.59171 2.83863 1409 ft 146 kts 235°
2026-05-03 20:46 39.58681 2.82828 1215 ft 129 kts 235°
2026-05-03 20:46 39.58221 2.81853 1047 ft 123 kts 236°
2026-05-03 20:47 39.57768 2.80892 901 ft 126 kts 237°
2026-05-03 20:47 39.57313 2.79927 708 ft 126 kts 238°
2026-05-03 20:47 39.56852 2.78947 534 ft 127 kts 238°
2026-05-03 20:47 39.56391 2.77963 357 ft 128 kts 238°
2026-05-03 20:48 39.55922 2.76956 242 ft 130 kts 238°
2026-05-03 20:48 39.55450 2.75960 96 ft 131 kts 237°
2026-05-03 20:48 39.54997 2.75012 38 ft 108 kts 238°
2026-05-03 20:48 39.54712 2.74411 37 ft 49 kts 239°
2026-05-03 20:49 39.54610 2.74187 37 ft 26 kts 239°
2026-05-03 20:49 39.54561 2.74034 38 ft 15 kts 259°
2026-05-03 20:49 39.54554 2.73929 38 ft 0 kts 268°
2026-05-03 20:51 39.54553 2.73895 38 ft 14 kts 267°
2026-05-03 20:51 39.54551 2.73765 38 ft 9 kts 271°
2026-05-03 20:51 39.54552 2.73761 38 ft 0 kts 271°
2026-05-03 20:51 39.54552 2.73752 38 ft 5 kts 271°
2026-05-03 20:52 39.54546 2.73636 38 ft 18 kts 263°
2026-05-03 20:52 39.54478 2.73473 38 ft 24 kts 238°
2026-05-03 20:52 39.54392 2.73282 38 ft 9 kts 262°
2026-05-03 20:52 39.54389 2.73248 36 ft 6 kts 264°
2026-05-03 20:53 39.54399 2.73224 38 ft 5 kts 310°
2026-05-03 20:53 39.54413 2.73202 38 ft 4 kts 305°
2026-05-03 20:53 39.54435 2.73154 36 ft 5 kts 300°
2026-05-03 20:53 39.54459 2.73134 38 ft 2 kts 341°
2026-05-03 20:54 39.54463 2.73134 38 ft 0 kts 351°
2026-05-03 20:54 39.54480 2.73129 38 ft 0 kts 347°